INTELSAT 33E DEB, 61989

Orbit data source: Space-Track

INTELSAT 33E DEB, 61989 is space debris in GEO originally from a launch on Wed, 24 Aug 2016 UTC launched from the French Guiana (FRGUI). Debris objects in space refer to the collection of defunct objects orbiting the Earth. Examples of debris include non-operational satellites, rocket bodies, and fragments generated from explosions, collisions, or faulty payload assembly.

Not visible in the next 10 days
Identifier
61989, 2016-053F
Orbit
GEO
Country
Flag of USUS / ITSO
Related business
Manufacturer
Boeing/ES
Mission
Spacecraft
Bus & Motor
Unknown
Mass
Unknown
Launch date (UTC)
Icon of a cake. It is the launch day of the satellite!2016-08-24 (10 years ago)
Launch vehicle
Unknown
Launch site
French Guiana (FRGUI)
Object type
Payload
Rocket body
Debris
Shape & HBR
Unknown shape, 1.1 m
Radar Cross Section
RCS unknown

Expand to show TLE details & history
Last TLE update: 3 days ago

TLE from 3 days ago
0 INTELSAT 33E DEB
1 61989U 16053F   26233.32547724 -.00000103  00000-0  00000-0 0  9993
2 61989   2.7096 108.4696 0737821  80.8128 287.4808  0.98071237  6480
Epoch: 2026-08-21T07:48Z
TLE epoch observation values (Epoch: 2026-08-21T07:48:41.233Z)
Latitude
-0.00001°
Longitude
21.68868°
Altitude
35,670.852 km
Speed
3.106 km/s
True Right ascension
07h 14m 02s
True Declination
0° 00' 00"
Sunlit
Object was in daylight at epoch
Visualization orbit readout
Latitude
Unknown
Longitude
Unknown
Altitude
Unknown
Speed
Unknown
Apparent Right ascension
Unknown
Apparent Declination
Unknown
Sunlit
N/A
Visualization observer readout
Local Sidereal Time
15:55:37
Azimuth
Unknown
Elevation
Unknown
Doppler factor
Unknown
Orbital elements
Apogee altitude
39,573.501 km
Perigee altitude
33,258.61 km
Semi-major axis
42,794.192 km
Eccentricity
0.07378
Inclination
2.7096°
RAAN
108.4696°
Arg. of periapsis
80.8128°
True anomaly
279.2158°
Mean anomaly
287.4808°
Eccentric anomaly
283.36794°
Mean motion
0.24517 °/min
Orbital period
1,468.37 mins
BSTAR
0
Loading maneuver chart data...
Computing Atmospheric mass density...
Loading historical data...
Loading historical data...
Loading historical data...
Loading historical data...
Loading historical data...
Loading historical data...
Loading historical data...

Documentation

Showing up to 5 results
|